Wind_Speed
20 21 21 21 21 21 22 23 23 24 25 25 25 25 25 24 24 24 24 24 24 24 23 23 22 22 22 22 22 22 22 22 23 23 23 23 23 23 23 22 22 22 22 22 22 22 22 22 21 21 21 22 22 23 24 25 25 24 24 23 22 23 24 26 28 29 30 31 31 31 32 32 31 30 30 32 33 33 33 33 33 31 31 31 31 32 32 29
19 19 19 19 19 19 19 20 20 21 22 22 23 23 23 23 23 22 22 22 22 22 22 22 22 22 22 22 22 22 22 22 23 23 23 23 23 23 23 23 22 23 23 23 23 23 22 22 21 21 21 22 22 22 23 24 24 24 24 22 22 24 27 28 27 27 29 30 31 31 31 32 33 31 30 31 30 31 32 32 32 31 31 31 32 35 31 27
17 17 17 17 17 17 17 17 17 18 18 19 20 20 20 20 20 20 20 21 20 20 20 21 21 21 21 21 21 22 22 22 23 23 23 22 23 23 23 23 23 23 23 23 24 23 23 22 22 22 22 23 22 22 22 23 23 23 23 23 24 27 27 26 25 26 28 29 30 30 32 32 33 31 30 30 29 31 32 31 32 32 33 33 34 35 28 26
16 16 15 15 15 15 15 15 15 15 16 16 17 17 18 18 18 18 19 18 18 17 18 19 20 20 20 21 21 21 21 21 22 22 21 22 22 22 23 23 23 24 24 25 25 24 24 24 24 24 24 24 24 23 23 22 23 22 22 23 26 28 27 25 24 26 28 29 30 31 33 33 32 32 31 31 30 32 32 32 33 33 35 35 35 33 28 27
14 14 14 13 13 13 13 12 13 13 13 14 14 15 16 16 16 16 16 15 15 15 16 17 17 18 19 19 20 19 19 19 19 19 20 21 21 21 22 23 23 24 25 25 25 25 25 25 25 25 25 25 24 23 24 24 23 22 22 24 26 27 27 26 25 26 28 30 31 33 35 35 33 32 33 33 33 34 34 34 35 36 36 36 34 31 28 28
12 12 12 12 11 12 11 10 10 11 11 11 12 13 14 14 14 13 13 13 13 13 14 14 15 16 17 17 17 16 16 17 16 17 18 19 20 20 21 22 23 23 24 25 25 25 25 25 25 25 25 25 24 24 25 24 23 22 22 24 26 26 26 27 27 27 29 31 33 34 35 35 35 34 34 35 36 36 36 37 37 37 36 34 33 31 29 29
10 10 10 10 10 10 10 9 8 9 9 10 10 11 11 12 12 11 11 11 12 12 12 13 14 15 15 14 14 14 14 14 14 15 16 17 18 19 19 20 21 22 22 23 23 24 24 24 24 24 24 25 25 26 26 25 24 23 23 24 26 26 26 27 28 28 30 32 34 35 35 36 37 36 36 37 37 38 38 38 38 37 35 33 32 32 31 29
9 9 9 9 9 8 9 8 8 8 8 8 9 9 10 10 10 10 10 10 11 11 11 12 13 13 13 12 12 13 13 13 13 14 14 15 16 17 18 19 20 20 21 21 21 22 23 24 24 25 26 26 27 27 27 26 25 25 24 25 26 26 27 27 28 29 30 33 35 36 36 36 36 37 37 38 37 38 38 37 36 35 34 33 33 32 31 29
9 9 9 8 8 8 7 7 7 7 7 8 8 8 9 9 9 9 9 10 10 10 11 12 13 12 11 11 11 11 11 11 11 11 12 12 13 15 16 17 17 18 19 20 21 22 23 23 24 24 25 25 25 26 25 25 25 25 26 27 27 27 28 29 29 30 32 34 36 37 37 36 37 37 37 37 37 37 36 35 34 33 33 33 33 31 28 28
9 9 9 9 8 8 7 7 7 7 7 7 8 8 9 9 8 9 9 10 10 11 11 12 12 12 11 11 11 10 10 10 9 9 10 11 11 12 13 14 14 15 16 18 19 20 20 21 20 19 20 20 21 21 20 21 23 24 26 27 27 28 30 30 30 32 33 35 37 38 39 39 38 37 36 35 35 34 32 30 30 30 32 34 33 28 26 24
9 9 9 9 9 8 8 7 7 7 7 6 7 8 9 9 9 9 9 10 10 11 12 12 13 12 11 11 11 10 10 10 9 9 9 10 10 11 11 11 12 13 14 15 16 17 17 16 15 15 17 17 18 17 16 17 19 22 24 26 27 28 30 31 31 34 35 37 38 38 38 37 35 34 34 33 32 30 28 27 27 29 32 33 29 23 22 21
10 10 10 10 9 9 9 8 8 8 7 7 7 7 8 9 9 9 10 10 10 11 12 12 13 13 13 13 12 11 10 10 10 9 9 10 9 9 10 10 11 12 13 14 15 16 16 15 14 15 16 17 16 15 14 14 16 20 21 24 26 26 29 31 32 35 37 37 37 36 36 35 33 32 32 32 30 29 28 27 27 28 29 27 22 19 19 20
10 10 10 10 10 10 10 9 9 9 8 8 8 8 8 8 9 9 10 10 11 11 12 13 14 14 14 14 12 12 12 11 11 10 10 9 9 9 10 11 11 11 12 14 15 15 15 14 14 14 15 15 13 12 13 13 14 16 17 20 22 24 28 31 33 35 35 35 33 33 34 34 34 33 31 33 32 30 29 28 29 29 26 23 20 18 18 20
11 10 10 10 10 10 10 10 10 10 10 9 9 8 8 8 8 9 9 10 11 12 13 14 15 14 14 14 13 13 13 13 13 12 11 10 9 10 11 11 11 11 12 13 14 14 14 14 14 14 14 13 11 11 12 12 13 14 14 16 18 21 25 29 31 31 30 31 31 33 33 32 35 34 31 32 32 30 29 30 31 28 25 24 22 20 19 20
12 11 11 11 11 11 11 11 11 11 11 11 10 10 10 9 9 9 9 9 10 12 13 14 15 14 14 15 14 14 14 15 14 14 12 12 11 12 12 12 12 12 12 13 13 13 12 13 14 14 13 12 11 12 12 12 13 12 12 12 12 14 19 24 27 25 25 27 29 33 32 30 33 33 29 29 29 27 27 28 29 26 24 24 23 21 20 20
13 12 12 12 12 12 12 12 12 12 13 12 12 12 11 11 10 10 9 10 10 11 12 13 14 15 14 14 15 15 16 16 16 15 15 14 14 14 15 15 14 14 14 14 13 13 12 13 13 12 12 12 12 12 13 13 13 12 12 11 11 12 16 20 23 23 26 28 29 30 28 27 30 30 28 28 27 27 26 27 27 25 24 23 23 22 22 21
14 13 13 13 13 13 14 14 14 14 14 14 14 13 13 13 12 11 10 10 11 11 12 12 13 13 13 13 15 17 18 18 17 17 17 17 17 17 17 18 17 16 16 16 15 14 15 14 13 12 13 13 14 14 15 15 15 15 13 14 14 15 17 20 23 24 26 28 27 26 24 25 28 29 29 29 29 29 28 28 27 25 24 24 24 24 23 22
14 14 14 14 14 15 15 15 15 15 15 14 14 14 14 14 14 13 12 11 12 12 13 13 13 13 12 13 15 17 17 18 18 18 18 18 18 19 19 20 19 18 18 18 18 18 17 15 14 15 15 15 15 16 17 17 18 17 16 16 16 17 19 21 24 24 23 24 24 23 22 24 26 28 29 29 29 30 29 28 27 26 24 24 25 24 23 22
15 15 15 15 16 16 16 16 15 15 15 15 14 14 14 14 14 14 12 12 12 12 13 13 14 13 12 13 15 16 16 17 18 19 19 19 19 20 21 21 21 21 21 21 21 21 19 18 17 17 17 18 18 18 18 19 20 19 18 18 18 19 20 21 24 25 24 23 23 22 21 23 26 28 29 29 29 29 29 27 26 25 23 22 23 23 23 22
16 16 16 16 17 17 17 16 16 16 16 16 15 14 15 15 15 14 13 13 13 13 13 12 12 13 13 15 18 18 17 16 17 18 18 19 20 21 22 22 23 23 23 24 24 22 20 19 19 19 21 21 21 21 22 22 22 21 21 20 20 20 21 22 24 26 25 25 24 24 23 25 27 28 29 28 28 29 28 24 23 22 20 19 20 21 22 23
16 17 17 17 18 18 18 17 17 17 17 17 17 17 16 17 16 16 15 15 14 15 14 13 13 13 13 16 18 19 18 17 17 17 18 19 20 21 22 22 22 23 25 26 25 23 21 21 21 22 24 24 24 24 24 24 23 23 22 22 21 22 22 23 24 26 26 26 26 25 25 27 28 28 29 28 27 27 26 23 22 21 20 19 20 21 23 24
17 18 18 18 18 18 19 19 19 19 19 19 19 19 19 19 18 18 17 16 16 16 16 15 14 13 13 15 16 16 16 16 17 17 17 18 19 20 20 20 21 23 24 24 24 22 21 22 24 26 25 25 25 24 24 24 23 22 22 22 21 22 22 23 24 26 27 27 26 26 26 28 28 28 28 27 25 24 25 25 24 24 22 20 20 23 25 26
18 18 19 19 19 19 19 19 19 19 19 19 19 19 19 19 19 19 19 18 17 17 17 16 16 15 14 14 14 14 13 14 16 17 18 20 20 19 19 20 21 22 22 23 24 22 22 24 26 26 25 24 24 24 24 23 22 21 21 21 21 21 23 24 25 26 28 28 28 27 27 28 28 28 27 25 23 23 25 26 26 26 23 20 21 23 25 26
19 19 19 19 19 19 19 19 18 18 17 17 17 17 17 17 17 17 18 18 18 18 18 17 17 16 16 15 15 15 13 13 15 16 18 20 20 19 20 21 20 21 22 23 24 23 22 25 25 25 25 25 25 25 25 24 23 22 22 22 22 22 24 26 26 27 28 29 29 28 28 28 28 27 25 24 23 24 27 27 27 27 25 23 24 24 24 26
20 20 19 19 18 18 17 17 16 16 16 15 14 15 14 14 13 14 15 15 16 17 17 17 18 17 17 17 17 16 13 13 15 16 16 17 17 17 18 19 19 21 23 24 24 23 22 24 25 25 25 25 25 26 25 26 25 25 25 24 24 25 26 27 27 28 29 30 30 30 30 29 27 26 25 24 24 26 29 28 28 30 31 29 28 26 26 27
19 19 18 18 17 16 16 15 14 14 13 13 13 13 12 11 11 11 12 13 13 15 16 16 16 16 16 16 15 15 13 14 15 15 14 14 14 15 15 16 17 20 23 23 23 21 21 23 25 24 25 25 25 25 25 26 27 28 27 26 27 28 28 28 29 30 30 31 32 32 33 32 29 27 27 26 26 28 30 30 30 33 36 37 34 31 31 31
18 18 17 16 15 15 14 13 12 12 12 12 11 10 9 9 9 10 12 11 11 12 13 13 13 13 14 13 13 14 13 14 14 13 14 13 12 13 15 15 15 18 21 21 20 20 20 22 24 24 24 24 24 24 25 26 27 27 27 27 28 30 30 30 31 32 33 33 33 33 34 35 32 30 29 30 29 30 31 32 33 36 39 42 41 37 35 35
17 16 16 16 15 14 12 11 10 10 10 10 9 8 8 8 8 9 10 10 9 9 10 11 11 12 13 12 13 13 13 13 13 14 15 14 13 13 14 14 15 17 18 17 16 17 18 20 22 23 22 22 23 24 26 27 27 27 27 27 28 30 29 30 31 33 34 35 34 35 34 35 35 33 32 33 32 33 34 35 37 41 43 45 46 42 39 35
15 15 15 14 14 13 11 9 8 8 8 7 6 5 6 6 6 7 8 8 8 8 8 9 11 12 12 13 13 13 12 12 12 14 15 15 14 15 15 15 16 17 17 16 14 15 16 18 18 18 17 18 20 22 23 24 24 24 24 25 27 28 28 28 29 31 34 36 36 35 34 35 38 36 33 33 34 35 37 37 38 42 44 45 46 42 38 34
14 14 13 13 12 11 10 8 7 7 7 6 5 5 5 6 6 7 7 5 6 7 7 8 10 11 11 12 11 11 11 9 9 11 13 14 14 16 16 17 17 18 19 18 16 16 18 18 17 16 16 17 18 20 20 19 20 20 20 22 23 25 25 25 25 26 29 33 34 34 34 36 40 38 34 34 36 36 37 36 35 38 40 42 42 37 33 31
14 13 13 12 12 10 9 8 7 7 6 6 6 5 6 7 7 7 7 6 7 8 7 7 8 7 8 9 9 10 10 9 9 10 13 14 15 15 16 16 16 17 18 19 19 18 18 19 18 17 17 19 19 19 19 19 20 21 20 20 21 22 23 23 23 23 25 27 28 30 32 36 39 38 34 31 33 33 33 32 33 34 35 36 36 31 29 29
13 13 13 12 11 10 9 8 8 8 7 7 7 7 7 8 8 8 7 7 9 7 5 6 7 7 8 9 9 9 9 10 10 11 13 15 15 15 16 16 17 18 18 18 19 20 19 19 19 19 19 19 19 19 19 19 20 22 22 22 21 22 23 23 23 24 25 25 25 26 28 30 33 32 28 25 26 28 29 31 32 32 32 32 32 30 28 28
13 13 13 12 11 10 10 9 9 9 8 8 8 9 9 10 10 10 9 9 9 7 7 7 8 10 11 11 10 8 9 11 10 10 12 13 13 15 16 16 17 18 18 18 19 20 21 20 20 20 21 20 20 20 20 19 20 21 22 22 22 22 23 24 24 25 25 25 25 25 26 27 27 25 23 22 23 25 27 30 32 32 31 30 30 30 30 29
14 14 13 13 12 11 11 11 11 11 10 10 11 11 11 11 11 11 11 11 11 10 10 11 11 12 12 11 10 10 11 13 12 11 12 14 14 15 16 16 17 17 18 19 20 22 22 21 20 20 20 20 20 20 20 20 21 22 23 23 22 21 22 23 23 24 25 25 25 26 25 25 24 23 23 22 23 24 26 28 31 32 31 30 30 30 31 31
14 14 14 14 13 13 13 13 13 13 13 13 13 13 13 13 13 13 13 13 13 12 11 12 13 13 13 12 12 13 13 14 15 15 16 16 16 17 17 17 18 18 18 19 20 22 21 21 21 21 20 20 19 20 21 21 21 24 25 24 23 22 22 24 24 24 25 26 27 26 25 24 23 23 24 22 22 24 25 27 29 31 31 31 30 30 31 32
14 15 15 14 14 14 14 14 14 14 14 14 15 14 15 15 15 14 14 14 14 14 13 13 13 14 15 15 15 17 17 17 17 18 19 20 19 19 19 19 19 20 20 21 21 22 21 20 21 22 22 21 21 21 23 23 23 25 25 24 23 23 23 25 25 25 26 27 27 26 25 24 23 24 23 21 21 23 25 27 27 28 29 30 29 30 31 32
15 15 15 15 16 16 16 15 15 15 15 15 15 16 17 17 17 16 16 15 15 15 15 15 15 15 16 17 17 19 20 21 21 20 21 22 22 23 23 22 22 23 24 24 24 25 25 22 21 22 22 22 21 22 24 26 26 26 25 24 24 24 24 25 26 26 27 29 29 27 26 24 24 25 24 22 20 20 22 25 26 26 26 27 27 28 28 28
18 17 16 16 17 17 17 18 17 16 16 16 17 18 19 20 19 19 18 17 17 16 17 17 17 16 17 18 19 20 21 23 24 23 24 24 24 25 25 24 25 26 27 28 28 29 29 27 26 26 25 23 22 21 22 24 26 27 26 25 25 25 26 26 28 29 29 29 30 28 26 25 25 25 25 23 21 21 22 24 26 27 26 26 27 28 28 27
21 20 18 17 18 19 20 20 20 19 19 19 20 21 22 22 23 22 21 21 20 20 20 20 20 19 19 20 20 22 23 24 26 27 27 27 27 27 27 26 27 28 29 31 32 33 33 32 31 30 29 27 25 23 22 23 25 27 27 27 27 28 29 30 31 31 31 31 32 32 31 30 29 29 29 28 27 27 27 27 27 28 28 28 28 30 31 31
24 23 22 20 20 22 23 23 22 22 22 22 22 23 24 25 25 25 25 24 24 23 23 23 23 23 23 23 24 25 26 26 27 29 30 30 30 30 30 29 29 30 31 32 34 35 36 36 36 35 34 32 30 28 26 25 26 28 29 29 30 31 32 32 32 33 34 34 36 37 37 36 34 33 33 33 33 31 30 28 28 29 29 29 28 29 31 32
27 27 25 24 24 25 26 25 25 25 26 26 25 26 27 27 28 28 29 28 27 27 27 26 27 27 26 26 27 27 28 29 29 30 31 31 31 32 32 32 32 32 33 34 35 37 38 39 40 39 39 37 34 33 31 29 29 30 31 32 33 33 34 34 35 35 36 38 39 40 41 40 38 38 37 36 35 33 32 31 29 29 30 30 29 29 30 32
29 29 28 27 28 28 28 28 28 28 28 29 29 29 29 30 30 30 31 31 31 30 30 30 30 30 30 30 29 29 30 30 30 30 31 32 33 33 34 34 34 34 34 35 37 39 40 42 43 42 42 40 38 37 36 34 33 32 34 35 36 36 37 39 40 40 40 42 44 44 44 43 43 43 42 39 37 36 35 34 33 33 33 32 31 30 30 31
31 31 31 30 31 31 31 31 31 31 31 31 31 32 32 32 32 32 32 32 33 33 33 33 33 33 32 32 32 32 31 31 31 30 31 32 33 34 35 35 35 35 35 35 36 39 40 42 44 43 43 42 41 41 40 39 38 38 40 41 42 43 43 44 45 46 46 47 47 47 47 46 46 47 45 42 39 38 37 36 36 36 36 35 33 32 31 31
31 32 32 32 32 33 33 33 33 33 33 33 33 33 34 34 34 34 34 34 34 35 35 35 35 34 34 34 34 33 33 33 32 31 31 31 32 34 35 35 35 35 35 35 36 37 39 41 43 43 44 43 42 42 41 41 41 41 42 44 46 47 46 46 46 47 48 49 48 48 49 48 48 49 48 45 43 42 41 39 39 38 38 37 36 36 35 34
31 32 33 33 33 34 34 34 34 34 34 34 34 34 35 35 36 36 36 36 36 37 36 35 34 34 34 34 33 32 32 33 33 34 33 32 32 32 33 33 34 34 35 35 35 36 37 39 41 42 43 43 42 40 40 39 39 40 40 42 43 44 44 45 45 47 48 48 48 49 49 49 49 50 50 48 46 46 45 42 41 40 40 40 39 39 40 40
31 32 33 34 35 35 35 35 35 35 35 35 34 35 35 36 36 37 38 38 38 38 37 37 36 35 35 34 33 33 33 33 34 35 34 33 31 30 30 30 31 32 34 34 34 35 37 38 39 40 42 42 42 40 39 39 39 39 39 39 40 40 42 43 45 47 47 48 49 49 47 48 49 50 51 50 47 47 47 45 43 42 41 42 41 40 40 41
32 32 32 33 35 36 36 36 36 36 36 36 35 35 35 35 35 36 36 37 37 36 37 38 37 36 35 34 34 34 34 33 34 34 34 32 31 29 28 29 31 32 33 34 35 36 38 39 39 40 41 41 42 41 41 41 41 40 39 38 38 39 40 42 44 45 46 48 50 48 46 47 48 49 50 49 47 47 47 47 46 44 43 43 43 43 42 42
32 33 32 32 33 34 35 36 37 37 38 38 37 37 36 36 35 35 35 35 35 35 35 36 36 35 35 34 33 34 33 33 33 33 33 33 32 31 29 30 31 32 33 35 36 37 39 40 41 41 42 42 42 42 42 43 43 42 41 40 39 40 40 41 42 43 44 47 49 47 46 47 48 49 50 49 48 49 50 49 48 47 46 46 46 46 46 45
31 31 31 31 32 32 33 34 35 36 37 39 39 39 38 37 36 36 35 34 33 33 32 33 34 34 34 33 33 33 33 33 33 33 33 33 33 33 32 31 31 32 33 35 36 38 40 41 42 43 43 43 43 43 43 44 44 43 43 42 41 41 41 41 41 41 42 44 45 45 47 48 48 50 51 50 50 51 51 50 49 49 49 48 48 48 48 48
29 29 30 30 31 31 32 33 33 34 35 36 37 37 37 36 35 35 35 34 32 32 31 31 32 33 34 34 34 34 34 34 34 34 34 34 35 35 34 33 32 32 33 35 36 38 40 42 44 44 45 45 44 44 44 44 44 44 43 43 43 42 41 40 38 38 40 42 43 45 48 48 48 50 51 51 51 51 50 50 50 50 50 50 50 49 49 49
27 28 28 29 30 31 32 33 33 34 35 35 35 35 35 34 34 34 34 34 34 33 33 32 32 33 34 36 36 37 36 36 36 37 36 36 36 36 36 36 35 34 34 35 37 38 40 43 44 45 47 46 44 45 46 45 44 44 43 43 43 42 40 38 37 38 40 42 43 45 47 46 48 50 51 51 51 52 52 51 51 51 51 51 50 50 50 49
29 29 30 31 32 33 34 34 34 34 34 34 34 34 34 34 34 34 35 36 35 35 34 33 33 34 35 36 37 38 39 39 39 39 38 38 38 37 37 36 37 36 35 36 37 38 40 43 44 46 48 47 45 46 46 46 47 47 44 43 43 42 40 39 39 38 39 40 42 43 44 44 47 49 50 50 51 51 51 52 52 52 52 51 51 51 50 50
Wind_Direction
281 282 283 284 283 280 276 271 268 265 263 262 262 262 262 263 263 263 263 262 262 261 261 261 262 262 262 262 262 262 262 260 260 259 259 257 256 254 253 253 251 251 250 250 250 250 252 253 255 257 257 257 256 254 253 251 252 253 252 252 250 249 248 245 244 244 243 241 238 233 231 231 227 225 229 233 237 240 244 248 251 255 256 259 264 266 268 272
283 284 285 286 287 285 280 274 268 264 261 260 259 259 260 261 262 263 263 262 260 258 257 257 257 258 259 260 260 260 260 260 260 258 256 255 253 252 251 250 249 249 249 249 249 250 251 253 255 256 256 256 255 254 254 253 253 253 251 250 248 247 246 244 243 244 243 240 237 233 228 227 223 222 226 230 235 239 242 247 250 255 259 262 264 265 268 272
284 285 287 290 292 291 286 278 269 263 259 257 257 258 259 260 262 262 262 262 260 258 255 253 253 254 256 257 258 259 259 259 258 256 254 252 250 249 249 249 248 248 249 249 249 250 251 251 252 252 252 252 252 252 253 254 254 252 250 247 245 244 243 241 240 240 239 237 235 231 224 221 220 221 225 227 231 236 240 245 250 254 258 260 260 264 270 275
285 287 290 293 297 299 294 283 272 263 258 256 256 257 259 261 262 263 263 262 260 257 252 250 250 252 254 256 258 259 259 258 256 255 252 250 248 247 247 248 248 249 249 249 250 250 250 249 249 249 248 248 250 251 251 251 251 250 249 245 243 242 239 237 235 233 232 232 232 229 221 217 217 220 225 228 231 235 239 243 247 250 253 256 260 266 274 279
288 291 294 297 302 305 302 290 276 266 259 257 257 258 260 262 263 264 263 261 258 253 249 247 248 250 252 255 257 258 257 256 255 254 252 250 248 247 247 248 249 249 250 250 250 249 249 248 247 246 246 247 249 248 247 246 246 247 245 242 242 242 239 235 232 228 227 229 230 228 222 217 217 221 225 228 231 234 238 241 244 248 252 257 263 270 276 280
292 296 298 301 304 309 310 298 280 269 264 261 261 261 262 262 262 262 262 259 255 250 247 246 246 248 251 253 256 256 256 256 254 252 251 250 249 248 248 249 249 249 250 250 249 249 247 246 245 244 244 245 244 243 244 245 245 243 241 240 240 241 239 236 231 225 224 226 227 227 225 221 219 222 226 229 232 236 240 243 246 251 255 261 267 272 276 281
296 300 303 306 308 312 315 309 291 276 270 268 266 265 263 262 261 259 259 256 252 249 246 245 245 248 251 254 255 255 255 254 252 251 249 249 250 249 247 248 249 249 249 249 249 248 246 245 244 244 243 242 240 241 243 244 242 239 236 236 238 238 236 235 232 226 223 222 224 226 226 224 223 224 228 231 235 240 244 246 251 256 261 267 271 274 277 280
298 302 307 312 315 316 318 316 305 288 277 274 271 269 267 264 262 260 257 254 252 250 247 246 246 248 251 253 254 254 254 253 253 252 250 249 249 249 248 247 247 247 247 247 247 246 245 244 243 242 241 241 241 242 243 243 240 234 230 231 234 233 232 234 233 230 226 221 222 225 226 228 230 231 233 235 239 243 247 250 255 260 265 269 271 274 275 272
295 300 305 311 317 320 320 319 315 302 287 279 274 272 269 266 264 262 259 256 253 249 248 248 248 250 250 251 252 254 255 254 254 253 252 250 250 250 248 248 248 247 247 247 246 246 246 245 246 247 248 249 248 248 249 246 241 235 232 233 232 229 231 234 231 229 226 221 220 223 226 230 234 236 238 240 243 247 250 254 258 262 264 265 266 267 265 261
290 294 299 305 311 317 320 320 318 312 301 288 279 273 269 267 265 263 262 259 256 250 248 248 250 251 250 251 252 254 254 254 256 256 254 251 251 250 248 249 249 249 249 249 250 250 250 251 253 255 255 253 251 251 252 250 245 241 238 237 234 229 231 233 228 225 224 220 220 222 226 230 235 240 243 246 249 251 256 259 260 261 260 261 262 260 253 251
288 291 295 299 304 309 313 318 319 318 313 303 289 279 272 268 263 261 260 259 256 253 251 250 251 251 250 250 250 252 254 255 255 256 260 258 254 253 251 251 250 249 248 248 247 246 245 246 247 246 244 242 241 240 240 244 246 244 242 240 238 232 232 233 226 223 222 219 220 223 229 236 242 246 248 251 254 258 262 260 258 258 259 261 261 253 244 245
288 291 293 296 299 302 305 309 313 316 317 313 304 292 281 273 267 262 259 257 255 254 254 253 252 251 248 247 245 248 250 251 252 252 256 259 257 259 257 252 249 247 244 241 237 237 236 230 228 230 231 232 233 232 232 236 239 242 243 241 241 236 233 232 226 223 223 222 225 229 236 243 248 250 251 255 258 260 261 255 254 257 260 263 259 248 242 246
288 291 292 294 295 297 299 301 305 308 310 310 308 302 294 285 275 268 263 259 256 253 251 250 250 250 249 247 245 246 246 245 246 245 247 252 255 258 256 250 245 243 242 239 234 233 230 222 220 222 225 227 228 229 230 233 237 241 246 245 245 240 233 229 227 227 226 228 233 236 239 243 248 251 252 255 256 255 253 249 252 257 260 264 260 252 247 250
286 289 291 292 293 293 294 296 298 300 302 303 304 302 298 292 284 277 270 265 259 253 250 249 250 251 253 253 249 248 249 248 245 241 241 244 245 248 251 248 243 239 237 237 233 230 226 220 216 214 219 222 222 226 227 230 234 233 237 244 247 243 237 233 231 231 230 231 233 235 238 242 249 252 252 255 256 254 249 246 249 255 260 264 264 261 256 254
283 287 289 290 291 291 292 293 295 296 297 297 297 295 294 291 286 280 275 270 264 258 255 253 252 252 253 254 254 251 251 250 247 244 241 237 237 239 242 241 235 234 233 232 230 228 226 220 215 213 217 220 220 225 226 228 230 221 214 226 238 238 238 237 234 230 226 225 226 230 235 239 247 251 251 254 256 254 250 247 250 255 259 262 265 266 263 261
279 283 286 288 289 290 291 293 293 294 293 292 291 291 290 288 284 280 275 269 265 263 260 257 256 254 252 252 254 254 251 248 246 246 242 234 230 231 235 235 231 230 233 233 231 227 225 221 217 216 219 224 226 228 230 232 232 223 209 209 213 213 219 226 227 220 215 217 221 226 230 234 241 248 250 252 252 252 251 250 252 254 256 258 260 260 261 262
276 280 284 286 288 289 291 292 293 292 291 288 287 287 286 284 283 280 275 269 265 262 261 260 259 258 254 250 250 251 250 250 247 244 241 235 230 229 232 235 234 231 231 233 233 230 229 227 223 222 224 227 231 233 235 237 237 232 224 219 215 211 214 219 223 221 218 220 225 227 227 230 237 244 249 250 251 251 251 251 252 253 253 255 257 259 261 264
273 278 282 284 287 289 291 292 292 291 289 286 285 284 282 281 279 278 278 275 271 266 262 259 258 257 255 251 249 248 249 251 249 244 240 238 235 233 233 235 235 233 232 233 233 232 233 234 232 231 232 232 235 239 240 242 242 240 235 231 227 223 223 224 228 232 231 230 233 232 230 231 236 242 247 250 252 255 256 257 257 256 256 256 258 262 265 268
273 277 281 284 287 289 291 291 290 289 287 285 284 282 280 279 277 277 278 276 274 270 265 262 259 257 253 250 248 247 245 248 249 247 244 242 241 239 238 237 236 235 236 236 236 236 236 237 238 238 238 236 236 239 241 243 244 244 241 238 235 233 234 234 236 240 242 241 240 238 232 229 232 237 244 251 255 258 260 261 263 261 258 256 256 259 262 264
274 278 281 285 287 289 289 288 287 286 284 283 282 280 279 278 276 275 274 271 270 267 265 264 262 258 251 247 248 247 244 245 249 250 248 245 244 242 241 241 239 237 237 237 238 239 239 240 242 244 243 240 237 236 238 240 242 243 243 242 241 240 240 240 241 243 245 245 243 241 234 230 232 235 241 247 252 256 258 262 266 266 263 259 257 258 259 258
276 280 283 285 287 287 287 286 285 283 282 282 281 279 277 275 274 273 271 270 269 267 265 263 259 256 252 251 252 253 251 249 249 251 251 248 245 242 241 242 242 240 240 241 241 241 242 242 242 242 242 242 241 239 239 241 242 244 244 244 244 244 243 243 243 245 245 244 242 241 238 236 238 240 243 245 246 249 253 256 260 261 263 263 260 259 259 258
279 281 284 286 286 286 286 285 284 283 282 281 280 278 276 274 272 271 269 268 267 266 265 264 260 256 254 254 255 257 257 256 253 251 253 252 247 243 243 242 241 243 245 246 245 243 242 241 240 240 241 242 243 243 243 244 246 247 247 248 248 248 248 246 245 247 248 246 242 239 236 237 240 244 247 249 246 246 249 252 254 257 260 261 261 262 264 265
281 283 285 286 286 286 285 285 284 283 283 281 280 278 276 274 273 271 269 267 266 265 265 265 263 258 254 253 253 253 253 255 255 251 251 252 251 248 245 243 242 243 245 246 245 241 239 240 240 241 242 242 244 244 244 246 247 249 250 251 253 254 254 252 249 248 250 250 247 243 240 238 240 243 247 251 253 253 255 256 259 262 264 261 260 262 264 267
283 285 286 286 286 286 285 285 285 284 283 282 280 279 277 275 273 271 268 266 264 264 263 262 261 259 256 253 252 251 248 249 253 253 251 252 252 250 249 248 247 246 245 245 244 239 237 241 243 244 245 245 245 245 244 245 246 247 247 248 251 253 254 255 254 251 251 253 254 253 249 245 245 248 251 254 258 261 262 263 267 272 274 267 260 259 260 263
284 285 286 286 285 284 284 284 285 286 286 285 283 280 278 276 274 272 270 268 265 262 260 258 257 256 255 253 253 253 249 246 249 252 252 252 251 251 250 250 249 248 247 246 247 244 241 244 247 246 248 249 249 250 249 248 248 246 245 245 246 246 248 251 253 253 251 252 255 256 256 255 254 255 257 257 259 263 266 270 274 279 281 277 270 268 268 267
284 285 285 284 282 281 282 283 284 285 284 283 280 280 282 282 281 281 278 276 271 265 260 255 254 254 253 253 255 257 250 243 244 248 251 252 251 251 250 249 248 248 248 248 249 247 243 246 250 250 250 250 251 253 254 253 253 250 249 248 247 247 247 249 251 253 252 250 250 252 254 256 257 256 258 259 260 264 268 273 278 279 279 279 277 276 276 274
284 284 283 281 280 280 280 281 281 281 280 280 280 286 290 289 289 287 282 277 271 265 258 251 248 249 252 251 251 252 249 244 243 243 247 248 249 253 253 251 248 248 251 252 252 250 246 246 250 251 252 254 255 255 255 255 254 252 252 250 250 250 250 250 250 252 253 252 250 250 252 255 258 256 254 257 260 264 267 271 273 272 272 275 276 274 274 272
282 281 280 279 279 279 279 279 277 276 277 280 284 291 292 290 291 288 284 279 269 260 252 244 242 243 247 248 249 249 248 250 251 250 252 253 250 251 253 251 247 247 252 255 256 254 250 249 250 251 253 256 258 257 255 255 254 253 253 252 251 252 252 252 252 252 253 253 252 252 254 257 260 258 254 256 259 263 264 265 264 263 263 267 270 271 269 266
276 276 276 277 277 278 277 274 270 269 272 276 281 282 284 292 300 302 299 288 272 265 257 250 248 246 248 251 253 254 251 251 253 257 259 260 257 255 253 251 250 253 257 257 255 254 252 249 250 251 251 252 253 253 253 254 254 252 250 249 250 252 254 256 256 255 254 253 252 254 257 261 261 260 259 260 262 263 262 260 258 257 257 258 263 266 266 261
270 271 272 273 274 274 272 269 263 260 263 268 272 273 283 298 309 317 320 303 286 289 283 270 263 260 261 261 256 252 251 250 251 259 263 262 260 258 257 256 255 258 262 261 256 252 250 249 247 245 246 247 248 251 254 255 254 251 249 248 248 251 255 256 257 257 257 257 256 256 258 260 261 262 263 264 265 264 262 260 256 255 254 254 259 262 261 259
266 267 268 269 270 268 265 260 254 250 251 256 263 272 286 299 308 319 327 316 302 308 305 284 269 263 262 260 254 252 257 259 255 256 260 261 262 261 262 264 263 262 262 261 256 251 250 252 250 245 244 248 251 254 257 258 258 257 254 252 252 253 254 256 258 259 261 262 261 259 257 257 259 262 262 261 260 258 257 257 256 256 254 255 258 258 255 254
264 264 264 264 265 263 259 252 245 243 245 253 264 275 285 294 304 313 318 312 304 305 301 275 257 254 251 248 254 263 268 269 264 258 257 260 263 264 264 265 266 266 265 263 260 255 253 254 253 249 247 249 252 255 257 258 259 261 261 259 261 262 259 259 260 261 262 263 261 258 256 255 257 258 255 251 251 251 251 253 255 256 256 257 258 256 251 247
261 262 262 260 259 257 253 249 246 246 251 259 268 274 280 286 296 302 306 309 305 295 279 263 254 260 263 260 268 280 282 279 279 279 278 279 279 277 274 271 267 266 263 262 262 259 256 255 254 252 253 254 254 253 255 256 257 260 263 264 264 263 261 259 260 261 262 260 258 256 255 254 255 255 249 242 245 249 249 251 253 255 256 256 256 256 253 250
257 258 258 257 256 254 251 250 250 253 257 263 269 273 276 281 289 296 302 309 309 299 283 269 262 264 268 273 281 290 292 292 295 297 297 298 298 295 292 286 279 272 264 261 261 260 258 257 255 252 254 257 258 257 256 257 258 259 260 262 262 261 260 260 259 260 259 257 256 257 257 256 256 255 252 246 245 248 248 249 252 255 256 255 255 256 258 259
252 253 253 253 254 254 253 253 255 258 260 264 267 271 276 279 285 294 302 307 307 302 291 277 269 266 267 274 283 288 291 294 297 299 298 298 299 299 296 292 288 283 276 270 268 266 262 259 256 254 254 255 256 258 260 260 260 261 262 262 261 260 260 259 257 256 256 256 256 256 256 258 259 257 256 252 248 248 248 248 250 254 257 258 257 257 259 262
248 249 249 249 250 252 254 255 257 260 262 263 265 270 274 279 285 292 297 300 301 300 297 288 278 270 270 276 282 285 287 288 290 293 293 294 295 294 293 292 291 288 284 280 276 273 270 263 258 256 256 257 255 254 256 255 254 258 261 261 261 260 258 257 257 255 255 257 258 259 259 259 260 260 258 254 251 249 248 247 248 252 256 260 260 258 258 261
246 248 248 248 249 251 253 255 257 260 263 266 269 273 276 279 284 289 291 293 295 295 293 289 283 276 274 276 278 280 283 284 286 287 289 290 289 288 289 290 290 287 284 282 279 277 275 271 265 259 259 263 260 254 253 254 252 254 258 262 264 263 260 260 262 261 261 261 261 262 261 258 257 260 261 259 256 252 249 248 249 252 255 259 261 260 259 260
246 248 250 252 254 255 256 257 259 264 268 271 275 277 278 281 284 286 288 290 290 289 288 286 283 281 277 277 277 276 276 279 283 285 286 285 283 283 284 284 284 283 281 280 279 277 277 275 272 269 269 271 267 257 255 256 255 255 258 261 263 262 263 265 267 266 265 265 264 262 259 254 252 256 260 261 259 257 257 257 257 258 260 261 263 264 264 264
248 249 251 255 259 260 260 261 263 266 270 273 277 279 280 282 284 285 287 287 286 286 286 286 286 285 283 282 279 275 273 274 277 280 281 281 279 279 278 276 275 275 273 274 275 275 277 277 274 273 272 272 268 260 255 257 258 258 258 258 260 260 262 265 266 267 267 267 267 266 262 259 258 259 261 262 263 261 260 259 260 261 263 265 266 267 268 269
251 252 253 257 261 262 263 264 266 269 271 273 277 280 281 282 283 284 283 284 286 286 286 287 288 288 288 286 282 279 277 275 275 276 277 278 278 277 276 274 271 270 268 268 269 270 273 274 274 273 272 271 267 260 256 256 257 257 257 257 258 259 260 262 263 265 267 268 269 269 268 267 266 264 264 264 265 263 259 256 255 255 260 264 264 264 267 269
254 255 257 259 262 264 266 267 268 270 272 274 276 278 280 280 281 282 282 283 284 285 286 287 288 288 288 286 284 282 280 278 276 275 274 275 274 273 274 274 272 271 270 269 268 267 268 269 270 270 270 270 267 262 258 255 254 253 255 257 260 261 262 263 264 264 266 268 270 271 271 272 272 270 268 267 267 265 263 261 258 256 259 263 263 262 262 263
257 259 260 260 262 265 267 268 269 270 272 274 275 276 277 278 279 280 282 284 285 286 287 287 287 288 287 286 284 282 280 278 276 275 273 273 272 272 272 271 270 269 270 269 268 267 267 268 268 268 268 267 266 263 260 257 254 252 254 257 259 260 262 263 264 265 266 267 269 270 270 271 272 272 271 270 269 267 266 266 264 263 264 263 262 261 261 261
259 261 262 262 263 265 267 268 269 270 271 272 273 274 275 276 277 279 281 283 284 285 286 287 288 288 288 287 286 283 281 279 275 273 271 271 272 272 271 270 270 269 268 267 266 266 267 267 268 268 268 267 265 263 260 258 257 256 256 256 257 259 262 261 261 262 263 264 264 266 267 268 270 271 271 271 269 267 266 266 266 266 265 263 261 260 260 261
262 263 264 263 264 266 267 268 269 270 271 271 272 273 275 276 277 278 280 281 282 282 283 285 286 287 287 286 285 283 282 280 277 273 271 270 270 271 272 273 273 272 271 269 267 267 266 266 267 268 268 268 266 265 264 263 262 260 259 259 259 260 261 259 258 258 259 259 258 259 263 265 267 268 269 268 267 267 266 266 266 266 264 262 260 258 257 258
265 268 269 267 266 267 269 269 270 271 272 273 274 275 277 278 278 279 280 281 281 282 283 284 285 284 283 282 281 280 279 277 276 275 273 271 271 272 273 274 274 274 273 271 270 268 267 266 266 267 267 267 266 265 264 263 262 261 261 260 260 260 259 258 257 256 256 256 256 256 259 261 262 264 265 266 266 267 266 266 264 263 262 261 260 259 259 259
266 269 272 273 271 271 271 271 271 271 271 272 273 275 276 278 279 281 282 283 284 286 287 287 286 284 283 282 281 280 279 277 277 276 275 275 274 273 272 271 271 271 270 270 269 269 267 266 265 266 266 267 267 266 264 261 259 258 258 259 259 258 258 257 256 256 256 257 256 256 257 258 259 262 263 265 265 266 266 266 264 262 262 261 261 260 259 259
269 269 272 274 275 275 275 275 274 274 273 272 272 273 274 276 278 280 282 283 285 286 286 286 286 284 284 283 281 280 279 278 277 277 277 276 274 272 270 268 268 268 268 269 268 268 267 267 266 266 266 267 267 267 265 264 262 259 258 257 258 257 257 257 257 257 257 257 257 258 258 258 259 260 261 262 263 264 265 266 265 264 263 261 260 259 258 258
271 271 271 272 274 275 276 277 277 277 276 275 274 274 274 275 277 278 279 280 281 282 282 282 282 281 280 279 278 277 276 275 274 275 275 276 276 275 272 269 268 267 267 267 267 266 266 267 267 267 266 266 266 266 265 265 264 263 261 260 259 258 258 258 258 258 257 257 258 258 258 257 258 259 259 259 260 261 262 263 264 264 262 260 258 257 257 257
273 273 273 272 272 273 275 276 277 278 278 279 279 279 279 279 280 281 281 281 281 279 278 278 278 278 277 276 274 273 273 272 273 273 275 276 277 277 274 271 270 269 268 265 265 265 265 266 266 266 266 266 266 266 265 265 265 265 264 263 261 259 258 258 258 258 257 258 259 258 257 256 256 258 259 259 259 260 260 261 261 261 261 259 258 258 257 257
277 276 276 275 274 274 275 275 277 278 279 280 282 283 284 285 285 284 283 282 280 279 277 276 276 277 276 276 274 273 273 273 273 273 274 273 273 273 272 270 267 266 266 265 264 264 265 266 266 267 267 267 267 267 266 266 266 266 266 265 264 262 260 259 258 258 257 257 257 256 256 257 256 257 259 259 260 260 260 260 260 260 260 260 260 260 259 259
282 282 281 281 280 280 279 278 279 279 280 281 283 284 284 284 283 282 281 281 280 278 278 276 275 274 274 275 275 276 276 275 274 273 273 272 271 270 270 269 267 264 263 264 264 265 265 266 267 268 268 268 269 269 268 268 268 266 265 265 265 265 265 263 261 259 257 256 255 255 257 259 259 258 259 260 260 261 262 262 262 262 261 262 262 262 261 261
286 285 285 284 284 283 282 282 282 282 282 282 282 282 281 281 280 279 279 279 279 278 276 275 274 272 272 273 274 275 276 275 275 275 274 273 271 270 269 269 269 268 266 265 265 266 266 267 268 268 269 270 271 272 272 272 269 266 266 267 269 270 270 267 263 260 258 256 255 255 256 257 257 258 259 259 259 260 261 262 263 263 263 263 263 263 263 263
Height
5774 5774 5773 5772 5771 5770 5769 5768 5768 5768 5767 5767 5768 5768 5768 5768 5768 5768 5768 5768 5768 5768 5768 5769 5769 5769 5769 5769 5769 5769 5769 5769 5770 5770 5770 5771 5772 5772 5773 5774 5774 5775 5776 5776 5777 5777 5778 5779 5780 5782 5782 5783 5784 5785 5785 5786 5787 5788 5790 5791 5792 5793 5793 5792 5792 5791 5790 5792 5794 5795 5796 5798 5800 5801 5803 5804 5806 5808 5809 5809 5810 5811 5811 5812 5813 5812 5813 5814
5772 5771 5771 5770 5769 5768 5767 5766 5765 5765 5765 5765 5765 5765 5765 5765 5765 5765 5765 5765 5765 5765 5766 5766 5766 5767 5767 5767 5767 5767 5767 5767 5767 5768 5768 5769 5769 5770 5770 5771 5772 5773 5773 5774 5775 5775 5776 5777 5778 5780 5780 5781 5781 5782 5783 5784 5785 5786 5787 5788 5790 5790 5789 5789 5789 5788 5788 5789 5791 5793 5794 5796 5797 5798 5800 5803 5804 5806 5807 5807 5807 5808 5808 5810 5809 5809 5810 5811
5770 5769 5769 5768 5767 5766 5765 5764 5763 5763 5763 5763 5763 5763 5763 5763 5763 5763 5763 5763 5763 5763 5763 5764 5764 5764 5764 5764 5764 5764 5764 5765 5765 5765 5765 5766 5767 5767 5768 5769 5770 5770 5771 5772 5772 5773 5774 5775 5776 5777 5778 5778 5779 5780 5781 5781 5783 5783 5785 5786 5786 5786 5786 5786 5787 5787 5786 5787 5789 5792 5792 5793 5794 5796 5798 5800 5802 5802 5804 5804 5804 5805 5805 5806 5806 5806 5809 5809
5768 5768 5767 5766 5765 5764 5763 5762 5761 5761 5761 5761 5761 5761 5761 5761 5761 5761 5760 5760 5761 5761 5761 5761 5762 5762 5762 5762 5762 5762 5762 5762 5762 5763 5763 5764 5764 5765 5766 5767 5767 5768 5769 5769 5770 5771 5772 5773 5773 5774 5775 5775 5776 5777 5778 5779 5780 5781 5782 5783 5783 5783 5783 5784 5784 5785 5784 5785 5787 5789 5790 5790 5792 5793 5795 5797 5799 5799 5800 5801 5801 5802 5802 5803 5803 5805 5807 5807
5767 5766 5765 5765 5764 5763 5762 5761 5760 5759 5759 5759 5759 5759 5759 5759 5759 5759 5759 5759 5759 5759 5759 5759 5760 5760 5760 5760 5760 5760 5760 5760 5760 5761 5761 5762 5762 5763 5764 5764 5765 5765 5766 5767 5767 5768 5769 5770 5770 5771 5772 5772 5774 5775 5775 5776 5777 5778 5780 5780 5779 5780 5781 5782 5782 5783 5783 5783 5784 5786 5787 5788 5790 5792 5793 5795 5796 5796 5797 5797 5798 5799 5800 5801 5802 5804 5805 5805
5765 5765 5764 5763 5763 5762 5760 5759 5759 5758 5758 5758 5758 5757 5757 5757 5757 5757 5757 5757 5757 5757 5757 5758 5758 5758 5757 5758 5758 5758 5758 5758 5758 5759 5759 5759 5760 5761 5762 5762 5762 5763 5763 5764 5765 5766 5766 5767 5767 5768 5769 5770 5771 5772 5772 5773 5774 5776 5777 5777 5777 5778 5779 5779 5780 5781 5781 5781 5782 5782 5785 5787 5789 5790 5791 5792 5793 5794 5795 5795 5795 5796 5798 5800 5801 5802 5802 5803
5764 5764 5763 5762 5762 5761 5760 5759 5758 5757 5757 5756 5756 5756 5756 5755 5755 5756 5756 5756 5756 5756 5756 5756 5756 5756 5756 5756 5756 5756 5756 5756 5757 5757 5757 5757 5758 5759 5759 5760 5760 5761 5761 5762 5762 5763 5763 5764 5765 5765 5766 5767 5768 5768 5769 5770 5772 5773 5774 5774 5774 5775 5776 5777 5778 5778 5779 5779 5779 5780 5783 5785 5787 5788 5789 5790 5791 5792 5793 5793 5794 5795 5796 5798 5798 5799 5800 5800
5763 5763 5762 5761 5761 5760 5759 5758 5757 5756 5756 5755 5755 5755 5754 5754 5754 5754 5754 5754 5755 5755 5755 5755 5754 5754 5755 5755 5755 5755 5755 5755 5755 5755 5756 5756 5756 5757 5757 5758 5758 5758 5759 5759 5760 5760 5761 5761 5762 5762 5763 5763 5764 5765 5766 5767 5769 5770 5770 5771 5772 5773 5773 5775 5776 5777 5777 5777 5778 5778 5780 5782 5784 5786 5787 5788 5789 5790 5791 5791 5793 5794 5794 5795 5795 5796 5797 5797
5762 5762 5761 5761 5760 5759 5758 5757 5756 5755 5755 5754 5754 5753 5753 5753 5753 5753 5753 5753 5753 5754 5754 5753 5753 5753 5754 5754 5754 5754 5754 5754 5754 5754 5754 5755 5755 5755 5755 5755 5756 5756 5757 5757 5757 5758 5758 5759 5759 5760 5761 5762 5763 5763 5764 5766 5766 5767 5768 5769 5769 5770 5771 5772 5773 5774 5775 5775 5775 5776 5778 5780 5781 5783 5784 5786 5787 5787 5789 5790 5791 5792 5792 5791 5792 5793 5794 5793
5761 5761 5760 5760 5759 5758 5757 5756 5756 5755 5754 5753 5753 5752 5752 5752 5752 5752 5752 5752 5753 5753 5752 5752 5752 5753 5753 5753 5753 5753 5753 5753 5753 5753 5753 5753 5753 5753 5753 5754 5754 5754 5755 5755 5756 5756 5757 5758 5759 5760 5760 5761 5761 5762 5763 5764 5765 5765 5766 5767 5768 5768 5768 5769 5770 5771 5772 5773 5773 5774 5776 5778 5779 5781 5782 5783 5784 5785 5787 5788 5788 5788 5788 5787 5788 5790 5790 5791
5760 5760 5759 5759 5758 5757 5757 5756 5755 5754 5753 5753 5752 5751 5751 5751 5751 5751 5751 5751 5752 5752 5752 5752 5751 5752 5752 5752 5752 5752 5752 5752 5752 5752 5752 5752 5752 5752 5752 5752 5752 5753 5753 5754 5754 5755 5755 5756 5758 5758 5758 5758 5759 5760 5761 5762 5763 5763 5764 5765 5766 5766 5766 5767 5768 5769 5769 5770 5771 5771 5774 5776 5778 5779 5780 5781 5782 5784 5785 5785 5785 5784 5784 5784 5786 5787 5788 5788
5759 5759 5758 5758 5757 5756 5756 5755 5754 5753 5753 5752 5751 5751 5750 5750 5750 5750 5750 5750 5750 5751 5751 5751 5750 5750 5750 5750 5750 5750 5750 5751 5751 5751 5751 5751 5751 5751 5751 5751 5751 5752 5752 5752 5753 5753 5754 5755 5755 5755 5756 5756 5757 5758 5759 5759 5760 5761 5762 5763 5763 5764 5765 5766 5767 5767 5767 5768 5770 5771 5773 5774 5776 5777 5778 5778 5780 5781 5781 5781 5781 5781 5781 5783 5784 5785 5786 5786
5758 5758 5757 5756 5756 5755 5754 5754 5753 5752 5752 5751 5750 5750 5749 5749 5749 5749 5749 5749 5749 5749 5749 5749 5748 5748 5749 5749 5749 5749 5749 5749 5749 5749 5749 5750 5750 5750 5750 5750 5750 5750 5750 5751 5751 5751 5752 5753 5753 5754 5754 5754 5755 5756 5757 5758 5759 5759 5760 5761 5761 5762 5763 5764 5765 5766 5767 5768 5770 5771 5771 5772 5773 5774 5775 5775 5776 5777 5778 5778 5778 5779 5780 5781 5782 5784 5784 5784
5757 5756 5756 5755 5754 5754 5753 5753 5752 5751 5751 5750 5750 5749 5749 5748 5748 5748 5748 5748 5748 5748 5747 5747 5747 5747 5747 5748 5748 5748 5748 5748 5748 5748 5748 5749 5749 5749 5749 5749 5749 5749 5749 5750 5750 5750 5751 5751 5751 5752 5752 5753 5754 5755 5756 5757 5758 5758 5759 5760 5760 5761 5762 5763 5764 5765 5767 5768 5769 5769 5769 5770 5770 5770 5771 5772 5772 5774 5775 5775 5775 5777 5779 5779 5780 5781 5782 5782
5756 5755 5754 5754 5753 5753 5752 5751 5751 5750 5750 5749 5749 5748 5748 5747 5747 5747 5747 5746 5746 5746 5746 5746 5746 5746 5746 5746 5746 5747 5747 5747 5747 5747 5747 5747 5747 5748 5748 5748 5748 5748 5748 5749 5749 5749 5750 5751 5750 5750 5750 5752 5753 5754 5755 5756 5757 5757 5758 5758 5759 5760 5761 5762 5762 5764 5766 5766 5766 5765 5766 5768 5767 5767 5769 5769 5769 5771 5771 5772 5773 5775 5777 5777 5777 5778 5778 5779
5754 5754 5753 5752 5752 5751 5751 5750 5750 5749 5748 5748 5747 5747 5746 5746 5746 5745 5745 5745 5745 5745 5744 5744 5744 5744 5745 5745 5745 5745 5745 5745 5745 5745 5745 5745 5746 5746 5747 5747 5747 5747 5747 5747 5748 5748 5749 5750 5749 5750 5750 5751 5752 5753 5753 5754 5755 5756 5757 5757 5757 5758 5758 5759 5760 5761 5762 5762 5762 5763 5765 5766 5765 5764 5766 5766 5766 5767 5768 5769 5771 5773 5774 5774 5774 5775 5775 5776
5753 5752 5752 5751 5750 5750 5749 5749 5748 5748 5747 5746 5746 5745 5745 5744 5744 5744 5744 5744 5743 5743 5743 5743 5743 5743 5744 5744 5743 5742 5742 5742 5743 5744 5744 5744 5744 5745 5745 5745 5746 5746 5746 5746 5746 5747 5748 5748 5749 5749 5750 5750 5751 5751 5752 5752 5753 5754 5755 5755 5756 5756 5756 5757 5757 5757 5759 5759 5760 5762 5763 5764 5763 5762 5763 5763 5763 5764 5765 5767 5768 5769 5770 5770 5771 5771 5772 5773
5751 5751 5750 5749 5749 5748 5748 5747 5747 5746 5745 5745 5744 5744 5743 5743 5742 5742 5742 5742 5742 5742 5741 5741 5741 5741 5742 5742 5741 5741 5741 5741 5741 5741 5742 5742 5743 5743 5743 5743 5744 5744 5744 5745 5745 5745 5746 5747 5747 5748 5748 5749 5750 5750 5750 5750 5751 5752 5753 5753 5754 5754 5755 5755 5754 5755 5756 5757 5758 5760 5761 5762 5762 5761 5760 5760 5760 5761 5762 5764 5765 5766 5767 5768 5768 5768 5770 5771
5749 5749 5748 5748 5747 5747 5746 5745 5745 5744 5743 5743 5742 5742 5741 5741 5740 5740 5741 5741 5740 5740 5740 5740 5739 5740 5740 5740 5739 5739 5739 5739 5739 5739 5740 5740 5740 5741 5741 5741 5742 5742 5742 5742 5742 5743 5744 5745 5746 5746 5747 5747 5747 5748 5748 5748 5748 5749 5750 5751 5751 5752 5752 5753 5753 5753 5754 5755 5756 5757 5759 5760 5759 5759 5759 5759 5759 5759 5759 5760 5761 5762 5764 5765 5765 5765 5766 5767
5748 5747 5747 5746 5745 5745 5744 5743 5743 5742 5741 5741 5740 5740 5740 5739 5738 5738 5738 5738 5738 5738 5738 5738 5738 5738 5738 5737 5736 5736 5737 5737 5737 5738 5738 5738 5738 5738 5739 5739 5740 5740 5740 5739 5740 5741 5742 5743 5744 5744 5744 5744 5745 5745 5746 5746 5746 5747 5748 5748 5749 5749 5750 5750 5750 5750 5751 5752 5753 5754 5756 5756 5756 5757 5757 5758 5758 5757 5757 5758 5758 5759 5760 5761 5762 5763 5763 5764
5746 5745 5745 5744 5743 5743 5742 5741 5740 5740 5739 5739 5738 5738 5737 5737 5736 5736 5736 5736 5736 5736 5736 5736 5736 5736 5736 5735 5734 5734 5735 5735 5736 5736 5736 5737 5737 5737 5737 5738 5738 5738 5737 5737 5738 5740 5741 5742 5742 5741 5740 5741 5741 5742 5743 5744 5744 5745 5745 5746 5747 5747 5747 5748 5748 5748 5748 5749 5750 5752 5753 5753 5753 5754 5754 5756 5756 5755 5755 5755 5755 5756 5757 5758 5760 5760 5761 5761
5744 5743 5743 5742 5741 5741 5740 5739 5738 5738 5737 5737 5736 5735 5735 5734 5734 5734 5734 5734 5734 5733 5733 5734 5734 5734 5734 5733 5732 5733 5733 5733 5734 5734 5734 5734 5735 5735 5735 5736 5735 5735 5735 5736 5736 5738 5739 5738 5737 5737 5738 5738 5739 5740 5741 5741 5742 5743 5743 5744 5744 5744 5745 5745 5745 5745 5745 5746 5748 5749 5750 5750 5750 5751 5752 5753 5754 5753 5752 5752 5753 5753 5754 5756 5756 5757 5757 5757
5742 5741 5741 5740 5739 5738 5737 5737 5736 5735 5735 5734 5733 5733 5732 5732 5732 5731 5731 5731 5731 5731 5731 5731 5731 5732 5732 5731 5731 5731 5731 5731 5731 5731 5731 5732 5732 5733 5733 5733 5733 5733 5733 5733 5734 5735 5735 5734 5734 5735 5735 5736 5736 5737 5738 5739 5739 5740 5741 5741 5742 5742 5742 5742 5743 5742 5742 5743 5744 5745 5747 5748 5748 5749 5750 5750 5751 5750 5749 5749 5749 5749 5751 5752 5753 5753 5753 5754
5740 5739 5738 5738 5737 5736 5735 5734 5734 5733 5732 5732 5731 5730 5730 5729 5729 5729 5729 5728 5728 5729 5729 5729 5729 5729 5729 5729 5729 5729 5730 5729 5729 5729 5729 5730 5730 5731 5730 5730 5731 5731 5731 5731 5731 5732 5733 5732 5732 5733 5733 5734 5734 5734 5735 5736 5736 5737 5738 5738 5739 5739 5739 5739 5739 5740 5739 5739 5740 5742 5743 5744 5746 5747 5748 5748 5748 5747 5745 5745 5745 5745 5747 5749 5749 5749 5750 5751
5737 5737 5736 5736 5735 5734 5733 5732 5732 5731 5730 5729 5729 5728 5728 5727 5727 5727 5726 5726 5726 5726 5726 5726 5726 5726 5726 5727 5727 5727 5728 5727 5727 5727 5727 5728 5728 5728 5728 5728 5729 5728 5728 5728 5728 5730 5731 5730 5730 5730 5731 5731 5732 5732 5733 5733 5734 5734 5734 5735 5735 5735 5735 5735 5736 5736 5737 5737 5737 5738 5738 5740 5742 5744 5744 5745 5744 5743 5742 5742 5743 5742 5742 5744 5745 5746 5746 5746
5735 5734 5734 5733 5733 5732 5731 5731 5730 5729 5728 5728 5727 5726 5726 5725 5725 5725 5724 5724 5724 5724 5724 5724 5724 5724 5724 5724 5725 5725 5726 5725 5725 5725 5725 5725 5725 5725 5725 5726 5726 5725 5724 5725 5726 5728 5729 5728 5727 5728 5728 5729 5729 5730 5731 5731 5731 5731 5732 5732 5732 5731 5732 5732 5732 5732 5733 5734 5734 5735 5735 5735 5738 5740 5741 5741 5741 5741 5740 5740 5741 5740 5739 5738 5739 5741 5742 5742
5732 5732 5731 5731 5731 5730 5730 5729 5728 5728 5727 5726 5726 5725 5725 5724 5724 5723 5723 5723 5723 5722 5721 5721 5722 5722 5722 5722 5723 5723 5724 5723 5723 5724 5723 5723 5723 5723 5723 5724 5724 5723 5722 5723 5724 5725 5726 5726 5725 5726 5726 5727 5727 5728 5728 5728 5728 5728 5729 5729 5729 5728 5729 5730 5730 5729 5729 5730 5731 5732 5732 5732 5734 5736 5738 5738 5738 5738 5738 5739 5739 5737 5736 5734 5734 5737 5738 5739
5730 5730 5729 5729 5729 5728 5728 5728 5727 5726 5725 5725 5724 5724 5724 5723 5723 5722 5722 5722 5721 5720 5720 5720 5720 5720 5720 5721 5721 5721 5722 5721 5721 5721 5720 5721 5721 5721 5721 5722 5722 5721 5721 5722 5722 5723 5723 5723 5723 5723 5724 5725 5725 5725 5725 5724 5725 5725 5726 5726 5726 5725 5726 5727 5727 5726 5726 5726 5727 5728 5729 5729 5729 5732 5734 5735 5735 5735 5735 5736 5735 5733 5732 5732 5731 5732 5734 5736
5728 5728 5727 5727 5727 5727 5726 5726 5726 5725 5724 5724 5724 5723 5723 5722 5722 5721 5721 5720 5719 5719 5719 5719 5719 5719 5719 5719 5719 5719 5720 5720 5720 5719 5718 5719 5719 5719 5720 5720 5720 5719 5719 5720 5721 5720 5720 5720 5720 5721 5722 5722 5723 5722 5722 5722 5722 5722 5722 5722 5722 5722 5723 5723 5723 5723 5722 5722 5724 5725 5727 5726 5724 5727 5731 5732 5732 5731 5730 5731 5730 5729 5729 5729 5729 5729 5731 5733
5727 5726 5726 5725 5725 5725 5725 5725 5724 5724 5723 5723 5723 5722 5721 5721 5721 5721 5720 5719 5718 5718 5718 5718 5718 5718 5718 5718 5718 5717 5717 5718 5718 5718 5717 5717 5718 5718 5717 5718 5718 5717 5717 5718 5718 5718 5717 5717 5718 5719 5719 5719 5719 5719 5719 5718 5718 5719 5719 5719 5719 5720 5720 5720 5720 5720 5719 5719 5721 5723 5724 5722 5720 5722 5727 5728 5726 5725 5725 5725 5725 5725 5725 5725 5725 5727 5729 5729
5725 5725 5724 5724 5724 5724 5724 5723 5723 5723 5722 5722 5721 5721 5720 5720 5720 5720 5719 5718 5718 5718 5717 5717 5717 5717 5717 5716 5716 5716 5716 5716 5716 5716 5716 5716 5716 5716 5715 5715 5715 5715 5715 5715 5715 5715 5715 5715 5715 5716 5717 5716 5716 5716 5716 5716 5715 5716 5716 5716 5717 5717 5717 5717 5717 5717 5716 5716 5718 5720 5720 5718 5717 5718 5722 5723 5721 5721 5721 5721 5721 5722 5722 5722 5722 5724 5726 5726
5724 5723 5723 5723 5722 5722 5722 5722 5722 5721 5721 5720 5720 5720 5719 5719 5719 5719 5718 5718 5717 5717 5716 5716 5716 5716 5715 5714 5714 5715 5715 5715 5714 5715 5714 5714 5714 5714 5713 5713 5713 5713 5713 5712 5712 5712 5713 5713 5713 5714 5714 5714 5714 5714 5714 5714 5713 5713 5713 5714 5714 5714 5714 5714 5714 5714 5714 5715 5715 5716 5715 5715 5714 5716 5719 5719 5718 5718 5718 5718 5719 5719 5720 5720 5720 5721 5723 5723
5722 5722 5721 5721 5721 5721 5721 5720 5720 5720 5720 5719 5719 5718 5718 5718 5717 5717 5717 5716 5716 5716 5715 5715 5715 5714 5713 5713 5713 5713 5713 5713 5713 5713 5712 5712 5712 5712 5711 5711 5711 5710 5710 5710 5710 5710 5710 5710 5710 5711 5711 5712 5712 5712 5712 5711 5710 5710 5711 5711 5711 5711 5711 5712 5712 5712 5712 5712 5712 5712 5712 5712 5713 5713 5715 5716 5716 5716 5716 5716 5716 5717 5718 5719 5718 5719 5720 5721
5720 5720 5720 5720 5719 5719 5719 5719 5719 5718 5718 5718 5717 5717 5716 5716 5716 5716 5715 5715 5714 5714 5713 5713 5713 5712 5712 5711 5711 5711 5711 5710 5710 5710 5710 5710 5709 5709 5709 5708 5708 5708 5707 5707 5707 5707 5707 5708 5708 5708 5708 5709 5709 5709 5709 5709 5708 5708 5708 5708 5709 5709 5709 5709 5710 5709 5709 5709 5709 5710 5710 5710 5710 5710 5712 5713 5713 5713 5714 5714 5714 5715 5716 5716 5717 5717 5717 5718
5718 5718 5718 5718 5718 5717 5717 5717 5717 5717 5716 5716 5716 5715 5715 5714 5714 5714 5714 5713 5712 5712 5711 5711 5711 5711 5710 5710 5710 5709 5709 5708 5707 5707 5707 5707 5707 5706 5706 5705 5705 5704 5704 5704 5704 5704 5705 5706 5706 5706 5706 5706 5707 5707 5706 5707 5707 5706 5706 5706 5706 5707 5707 5706 5706 5706 5706 5706 5706 5707 5708 5708 5707 5707 5708 5710 5711 5712 5712 5712 5712 5712 5712 5714 5715 5715 5715 5715
5716 5716 5716 5716 5716 5715 5715 5715 5715 5715 5714 5714 5714 5713 5713 5712 5712 5712 5712 5711 5710 5709 5709 5708 5708 5708 5708 5708 5708 5707 5707 5706 5706 5705 5704 5704 5704 5703 5703 5703 5702 5702 5702 5702 5702 5701 5702 5704 5704 5704 5704 5704 5705 5704 5704 5704 5705 5704 5704 5704 5703 5704 5704 5703 5703 5703 5703 5703 5703 5704 5706 5706 5705 5704 5705 5708 5709 5710 5710 5710 5710 5710 5710 5711 5712 5712 5712 5712
5713 5713 5713 5713 5713 5713 5713 5713 5713 5712 5712 5712 5712 5711 5711 5710 5710 5710 5710 5709 5709 5708 5707 5706 5706 5706 5706 5706 5705 5705 5704 5703 5703 5703 5702 5701 5701 5700 5700 5700 5699 5699 5698 5698 5698 5698 5699 5700 5701 5702 5702 5703 5702 5702 5701 5701 5701 5701 5701 5701 5701 5702 5702 5701 5701 5700 5700 5700 5700 5701 5703 5703 5702 5701 5702 5705 5706 5707 5707 5707 5707 5707 5707 5708 5708 5709 5709 5709
5711 5711 5711 5711 5711 5711 5710 5710 5710 5710 5710 5710 5709 5709 5708 5708 5708 5707 5707 5707 5706 5706 5705 5704 5704 5704 5704 5703 5703 5703 5702 5701 5700 5700 5700 5699 5698 5698 5697 5697 5696 5696 5695 5694 5695 5694 5694 5696 5697 5698 5699 5699 5699 5699 5698 5698 5698 5698 5698 5698 5699 5699 5698 5698 5698 5697 5697 5696 5696 5697 5699 5700 5700 5700 5700 5702 5703 5704 5704 5704 5703 5703 5704 5704 5704 5705 5705 5706
5709 5709 5709 5709 5709 5708 5708 5707 5708 5708 5708 5707 5707 5706 5706 5705 5704 5704 5704 5704 5703 5703 5703 5702 5701 5701 5701 5701 5701 5700 5699 5699 5698 5697 5696 5696 5695 5695 5694 5694 5693 5692 5692 5691 5691 5690 5690 5691 5693 5693 5695 5696 5696 5696 5695 5695 5694 5694 5695 5695 5695 5695 5694 5694 5694 5693 5694 5693 5693 5693 5694 5696 5697 5698 5698 5699 5700 5700 5700 5701 5700 5700 5700 5700 5701 5701 5701 5702
5706 5706 5706 5707 5706 5705 5705 5705 5705 5705 5705 5705 5704 5703 5703 5702 5701 5701 5700 5700 5700 5699 5699 5699 5698 5698 5698 5697 5697 5696 5696 5695 5695 5694 5693 5692 5692 5691 5690 5690 5690 5689 5688 5688 5687 5687 5686 5686 5687 5688 5690 5691 5692 5692 5692 5692 5692 5691 5691 5691 5691 5690 5690 5690 5690 5690 5690 5689 5689 5689 5689 5690 5692 5693 5694 5694 5695 5695 5696 5697 5697 5697 5696 5696 5697 5697 5697 5697
5703 5703 5703 5704 5703 5702 5701 5702 5702 5702 5701 5701 5701 5700 5699 5698 5698 5697 5696 5697 5696 5696 5695 5695 5694 5694 5694 5693 5693 5692 5692 5691 5691 5690 5689 5688 5687 5687 5685 5685 5685 5685 5685 5685 5684 5684 5683 5682 5683 5684 5684 5686 5688 5688 5689 5689 5689 5688 5687 5687 5687 5687 5686 5686 5686 5686 5686 5685 5685 5684 5684 5685 5686 5687 5688 5689 5690 5691 5691 5692 5693 5693 5693 5693 5693 5694 5694 5694
5700 5699 5700 5700 5699 5699 5698 5698 5698 5698 5698 5698 5697 5697 5696 5695 5694 5693 5693 5692 5691 5691 5691 5690 5690 5690 5689 5689 5689 5688 5687 5687 5686 5686 5685 5684 5683 5682 5681 5681 5681 5681 5681 5681 5680 5680 5679 5678 5678 5678 5679 5680 5682 5683 5684 5685 5685 5685 5684 5683 5683 5683 5683 5682 5681 5681 5682 5681 5680 5680 5680 5680 5680 5680 5681 5683 5684 5686 5686 5687 5688 5689 5689 5690 5690 5690 5690 5690
5696 5696 5696 5696 5696 5695 5695 5694 5694 5694 5694 5694 5693 5693 5692 5691 5691 5690 5689 5688 5687 5686 5686 5685 5685 5685 5685 5684 5683 5683 5683 5682 5682 5681 5681 5679 5678 5677 5677 5676 5676 5676 5677 5677 5676 5675 5674 5673 5672 5673 5673 5674 5676 5677 5678 5680 5680 5680 5679 5678 5678 5678 5679 5679 5678 5677 5677 5677 5676 5676 5675 5675 5675 5674 5675 5677 5679 5680 5681 5682 5682 5683 5684 5685 5685 5686 5686 5686
5692 5692 5691 5692 5692 5691 5690 5691 5691 5690 5690 5690 5689 5688 5687 5687 5686 5686 5685 5685 5683 5682 5682 5682 5681 5681 5680 5679 5678 5678 5677 5676 5676 5676 5676 5675 5674 5673 5672 5671 5671 5671 5671 5671 5670 5670 5669 5668 5667 5667 5667 5668 5669 5671 5672 5674 5674 5674 5673 5672 5672 5672 5672 5673 5673 5672 5671 5671 5672 5672 5670 5671 5670 5669 5669 5671 5672 5673 5675 5676 5677 5677 5678 5679 5680 5681 5681 5681
5688 5688 5687 5687 5687 5687 5686 5686 5686 5686 5685 5685 5684 5683 5683 5682 5681 5680 5680 5680 5679 5678 5678 5678 5677 5676 5675 5674 5674 5673 5672 5671 5670 5670 5670 5670 5669 5669 5668 5667 5666 5666 5665 5665 5665 5664 5664 5663 5662 5661 5661 5661 5663 5665 5666 5667 5667 5667 5667 5666 5666 5666 5666 5666 5666 5665 5664 5664 5666 5667 5667 5666 5665 5664 5663 5664 5666 5668 5669 5670 5671 5671 5672 5673 5673 5674 5675 5675
5685 5684 5683 5682 5682 5682 5682 5681 5681 5681 5681 5681 5680 5679 5679 5677 5676 5675 5674 5674 5673 5672 5672 5671 5671 5670 5669 5668 5668 5667 5666 5665 5664 5663 5663 5664 5664 5664 5663 5662 5661 5660 5659 5659 5659 5658 5657 5657 5656 5656 5655 5655 5656 5658 5659 5660 5660 5661 5660 5660 5660 5660 5659 5659 5658 5657 5658 5658 5658 5660 5662 5662 5660 5659 5658 5659 5661 5662 5662 5663 5664 5665 5666 5666 5667 5668 5668 5669
5681 5681 5680 5678 5677 5676 5676 5676 5676 5675 5675 5675 5675 5675 5674 5673 5673 5671 5670 5669 5668 5667 5666 5665 5664 5663 5663 5662 5662 5661 5660 5659 5658 5658 5657 5657 5658 5658 5658 5657 5656 5655 5654 5653 5653 5652 5651 5650 5650 5650 5650 5650 5650 5651 5652 5652 5652 5653 5654 5653 5653 5654 5653 5652 5651 5652 5652 5651 5651 5655 5657 5656 5656 5655 5653 5654 5655 5656 5655 5656 5657 5659 5660 5661 5661 5661 5662 5663
5676 5676 5676 5675 5673 5672 5671 5670 5670 5669 5669 5669 5669 5669 5669 5669 5668 5667 5666 5665 5664 5662 5661 5660 5659 5658 5657 5657 5656 5656 5655 5654 5654 5653 5652 5652 5652 5653 5653 5652 5651 5650 5650 5648 5647 5646 5645 5644 5644 5644 5644 5645 5645 5645 5645 5645 5645 5646 5646 5647 5647 5647 5646 5646 5646 5646 5645 5643 5646 5650 5650 5649 5650 5648 5646 5649 5651 5650 5650 5651 5652 5653 5654 5654 5654 5655 5656 5657
5671 5670 5670 5670 5669 5668 5667 5666 5665 5664 5663 5662 5662 5662 5662 5662 5662 5661 5660 5659 5659 5657 5656 5655 5654 5653 5652 5652 5651 5651 5650 5650 5649 5649 5648 5647 5647 5647 5647 5647 5646 5645 5644 5643 5642 5641 5639 5638 5638 5637 5637 5638 5639 5639 5638 5638 5638 5638 5639 5639 5640 5639 5639 5640 5640 5640 5639 5638 5641 5643 5641 5642 5644 5640 5638 5642 5644 5643 5644 5645 5645 5646 5646 5647 5648 5649 5649 5650
5666 5665 5665 5665 5664 5663 5662 5662 5661 5660 5659 5658 5656 5656 5656 5655 5655 5654 5653 5653 5652 5652 5651 5650 5649 5648 5647 5646 5645 5645 5644 5644 5644 5644 5643 5643 5642 5642 5641 5641 5641 5640 5639 5638 5636 5635 5634 5632 5631 5631 5631 5632 5633 5632 5632 5632 5632 5632 5633 5632 5632 5632 5633 5634 5634 5634 5633 5633 5634 5634 5632 5635 5637 5633 5632 5635 5635 5635 5636 5637 5638 5638 5638 5639 5641 5641 5642 5643
5662 5661 5660 5660 5659 5658 5657 5657 5656 5655 5654 5653 5653 5652 5651 5650 5649 5648 5647 5646 5646 5645 5645 5645 5644 5643 5641 5640 5639 5639 5639 5639 5638 5637 5637 5637 5636 5636 5635 5635 5635 5634 5634 5632 5630 5630 5628 5626 5626 5625 5623 5625 5627 5626 5625 5625 5625 5625 5626 5626 5625 5626 5627 5628 5628 5627 5626 5626 5627 5626 5627 5630 5629 5626 5626 5627 5628 5628 5628 5629 5629 5630 5631 5632 5633 5633 5634 5635
5658 5657 5656 5655 5654 5653 5652 5651 5651 5650 5649 5649 5648 5646 5645 5644 5644 5643 5641 5640 5640 5640 5639 5639 5638 5637 5636 5635 5634 5633 5632 5631 5631 5630 5630 5630 5629 5629 5629 5629 5628 5628 5628 5627 5625 5625 5623 5621 5621 5618 5616 5619 5621 5619 5618 5618 5617 5618 5621 5621 5620 5620 5620 5620 5620 5619 5619 5620 5620 5621 5623 5624 5622 5619 5620 5620 5620 5622 5622 5621 5621 5621 5623 5624 5624 5625 5626 5627